ROMMA est une association bénévole à but non lucratif. Votre soutien est indispensable : ADHERER à ROMMA ou FAIRE un DON

Chambon - (38, Isère)

Oisans (2460 m)   Longitude: 06° 10' 42" E   Latitude: 45° 01' 32" N Station partenaire n°803
 

Détail journalier du     <<     >>

Température Humidité Vent Dir Rafale Dir. rafale Neige 1 Neige 2
Heure (°C) (%) (km/h) (km/h) (cm) (cm)
01:00 -3.8708OSO15OSO165215
02:00 -5.69710OSO16OSO165215
03:00 -4.67210OSO21OSO165215
04:00 -3.65011SSO26SO165215
05:00 -5.88218SO31SO165215
06:00 -5.77517SO29SO165215
07:00 -3.4458SO28ONO165215
08:00 -3.8434S27OSO165215
09:00 -3.5417SO25NNO165215
10:00 -2.6417O31ONO164214
11:00 -3.1498OSO32O165215
12:00 -3.96510O34ONO165215
13:00 -4.78210O34O165215
14:00 -5.38912O36O165215
15:00 -5.49410SO31OSO165215
16:00 -5.79513SO27SO165216
17:00 -6.2959SO22SO165216
18:00 -6.4963SSE16OSO165217
19:00 -6.4965OSO18OSO167218
20:00 -6.49615NE30NE166220
21:00 -6.59623NE48NE165219
22:00 -6.79638NE70NE166215
23:00 -6.99633NE63NE165215
minuit -7.39618NNE45NE165214

Graphique du 01-03-2019

 

Serveur OMMA